30.06.2024;16:00;82
30.06.2024;15:00;84
30.06.2024;14:00;86
30.06.2024;13:00;72
30.06.2024;12:00;62
30.06.2024;11:00;68
30.06.2024;10:00;73
30.06.2024;09:00;77
30.06.2024;08:00;77
30.06.2024;07:00;79
30.06.2024;06:00;69
30.06.2024;05:00;32
30.06.2024;04:00;38
30.06.2024;03:00;40
30.06.2024;02:00;51
30.06.2024;01:00;60
30.06.2024;00:00;57
29.06.2024;23:00;74
29.06.2024;22:00;91
29.06.2024;21:00;65
29.06.2024;20:00;42
29.06.2024;19:00;42
29.06.2024;18:00;45
29.06.2024;17:00;52
29.06.2024;16:00;88
29.06.2024;15:00;90
29.06.2024;14:00;93
29.06.2024;13:00;86
29.06.2024;12:00;82
29.06.2024;11:00;72
29.06.2024;10:00;56
29.06.2024;09:00;40
29.06.2024;08:00;12
29.06.2024;07:00;16
29.06.2024;06:00;12
29.06.2024;05:00;13
29.06.2024;04:00;19
29.06.2024;03:00;23
29.06.2024;02:00;22
29.06.2024;01:00;24
29.06.2024;00:00;24
28.06.2024;23:00;27
28.06.2024;22:00;32
28.06.2024;21:00;41
28.06.2024;20:00;57
28.06.2024;19:00;66
28.06.2024;18:00;74
28.06.2024;17:00;97
